Weather History for CYOW - April, 2013

Change the Weather History Date:

Monday, April 29, 2013

  Actual Average Record
Temperature  
Mean Temperature 54 °F -  
Max Temperature 59 °F 65 °F 77 °F (2004)
Min Temperature 49 °F 45 °F 24 °F (2012)
Degree Days  
Heating Degree Days 11    
Growing Degree Days 4 (Base 50)    
Moisture  
Dew Point 45 °F    
Average Humidity 67    
Maximum Humidity 82    
Minimum Humidity 48    
Precipitation  
Precipitation 0.01 in 0.10 in - ()
Sea Level Pressure  
Sea Level Pressure 30.09 in    
Wind  
Wind Speed 9 mph ()    
Max Wind Speed 18 mph    
Max Gust Speed 25 mph    
Visibility 15.0 miles    
Events Rain    
Averages and records for this station are not official NWS values.
T = Trace of Precipitation, MM = Missing Value Source: Averaged Metar Reports

Daily Weather History Graph

Daily Weather History Graph

Search for Another Location

Airport or City:

Trip Planner

Search our weather history database for the weather conditions in past years. The results will help you decide how hot, cold, wet, or windy it might be!

Date:

Astronomy

Apr. 29, 2013 Rise Set
Actual Time 5:53 AM EDT 8:06 PM EDT
Civil Twilight 5:21 AM EDT 8:39 PM EDT
Nautical Twilight 4:41 AM EDT 9:19 PM EDT
Astronomical Twilight 3:56 AM EDT 10:04 PM EDT
Moon No Moon Rise 9:07 AM EDT (4/29)
Length of Visible Light 15h 17m
Length of Day
14h 12m
Waning Gibbous, 80% of the Moon is Illuminated
Apr 29
Waning Gibbous
May 2
Last Quarter
May 9
New
May 18
First Quarter
May 25
Full

Hourly Weather History & Observations

Time (EDT) Temp. Dew Point Humidity Pressure Visibility Wind Dir Wind Speed Gust Speed Precip Events Conditions
12:00 AM 55.4 °F 39.2 °F 54% 30.04 in 15.0 mi ESE 9.2 mph 19.6 mph N/A   Overcast
1:00 AM 53.6 °F 39.2 °F 58% 30.06 in 15.0 mi South 5.8 mph - N/A   Mostly Cloudy
2:00 AM 56 °F 42 °F 48% 30.08 in 15 mi SW 11.5 mph - -   Overcast
2:00 AM 57.2 °F 41.0 °F 55% 30.08 in 15.0 mi SW 11.5 mph - N/A   Overcast
3:00 AM 55.4 °F 42.8 °F 63% 30.08 in 15.0 mi SSW 8.1 mph - N/A   Overcast
4:00 AM 53.6 °F 42.8 °F 67% 30.09 in 15.0 mi SW 8.1 mph - N/A   Mostly Cloudy
5:00 AM 51.8 °F 42.8 °F 71% 30.09 in 15.0 mi South 4.6 mph - N/A   Mostly Cloudy
6:00 AM 53.6 °F 42.8 °F 67% 30.09 in 15.0 mi SSE 8.1 mph - N/A   Mostly Cloudy
7:00 AM 53.6 °F 44.6 °F 72% 30.10 in 15.0 mi SE 9.2 mph - N/A   Mostly Cloudy
8:00 AM 57 °F 44 °F 52% 30.10 in 15 mi SSE 10.4 mph - -   Mostly Cloudy
8:00 AM 57.2 °F 44.6 °F 63% 30.10 in 15.0 mi SSE 11.5 mph 19.6 mph N/A   Mostly Cloudy
9:00 AM 59.0 °F 42.8 °F 55% 30.09 in 15.0 mi SSE 18.4 mph 25.3 mph N/A   Mostly Cloudy
10:00 AM 57.2 °F 42.8 °F 59% 30.10 in 15.0 mi South 15.0 mph 20.7 mph N/A   Overcast
11:00 AM 57.2 °F 42.8 °F 59% 30.10 in 15.0 mi SSE 15.0 mph - N/A   Overcast
12:00 PM 57.2 °F 44.6 °F 63% 30.10 in 15.0 mi South 17.3 mph - N/A   Overcast
12:40 PM 55.4 °F 46.4 °F 72% 30.10 in 15.0 mi South 16.1 mph - N/A Rain Light Rain
1:00 PM 53.6 °F 48.2 °F 82% 30.10 in 15.0 mi SSE 11.5 mph 19.6 mph N/A Rain Light Rain
1:33 PM 55.4 °F 48.2 °F 77% 30.10 in 15.0 mi South 13.8 mph 20.7 mph N/A   Overcast
2:00 PM 55 °F 48 °F 70% 30.10 in 15 mi South 13.8 mph - - Rain Light Rain
2:00 PM 55.4 °F 48.2 °F 77% 30.10 in 15.0 mi South 13.8 mph 20.7 mph N/A   Overcast
3:00 PM 55.4 °F 48.2 °F 77% 30.09 in 15.0 mi South 11.5 mph - N/A   Overcast
4:00 PM 57.2 °F 48.2 °F 72% 30.08 in 15.0 mi SSE 11.5 mph - N/A   Overcast
5:00 PM 57.2 °F 48.2 °F 72% 30.07 in 15.0 mi South 6.9 mph - N/A   Overcast
6:00 PM 57.2 °F 48.2 °F 72% 30.08 in 15.0 mi ESE 6.9 mph - N/A   Overcast
7:00 PM 57.2 °F 48.2 °F 72% 30.08 in 15.0 mi East 6.9 mph - N/A   Overcast
8:00 PM 56 °F 49 °F 70% 30.09 in 15 mi ESE 5.8 mph - -   Overcast
8:00 PM 55.4 °F 48.2 °F 77% 30.09 in 15.0 mi ESE 5.8 mph - N/A   Overcast
9:00 PM 55.4 °F 48.2 °F 77% 30.10 in 15.0 mi ESE 6.9 mph - N/A   Overcast
10:00 PM 57.2 °F 48.2 °F 72% 30.11 in 15.0 mi SSE 9.2 mph - N/A   Overcast
11:00 PM 57.2 °F 48.2 °F 72% 30.11 in 15.0 mi SSE 8.1 mph - N/A   Overcast